Change the Weather History Date:

Monday, December 5, 2011

  Actual Average Record
Temperature  
Mean Temperature 50 °F 37 °F  
Max Temperature 63 °F 46 °F 78 °F (2001)
Min Temperature 36 °F 28 °F 12 °F (1976)
Degree Days  
Heating Degree Days 15 28  
Month to date heating degree days 117 136  
Since 1 July heating degree days 975 1206  
Cooling Degree Days 0 0  
Month to date cooling degree days 0 0  
Year to date cooling degree days 1284 895  
Moisture  
Dew Point 42 °F    
Average Humidity 74    
Maximum Humidity 92    
Minimum Humidity 55    
Precipitation  
Precipitation 0.00 in 0.11 in 1.51 in (1993)
Month to date precipitation 0.00 0.53  
Year to date precipitation 44.06 36.52  
Sea Level Pressure  
Sea Level Pressure 30.25 in    
Wind  
Wind Speed 3 mph (South)    
Max Wind Speed 13 mph    
Max Gust Speed 20 mph    
Visibility 9 miles    
Events      
T = Trace of Precipitation, MM = Missing Value Source: NWS Daily Summary

Daily Weather History Graph

Daily Weather History Graph

Search for Another Location

Airport or City:

Trip Planner

Search our weather history database for the weather conditions in past years. The results will help you decide how hot, cold, wet, or windy it might be!

Date:

Astronomy

Dec. 05, 2011 Rise Set
Actual Time 7:16 AM EST 4:48 PM EST
Civil Twilight 6:46 AM EST 5:18 PM EST
Nautical Twilight 6:13 AM EST 5:51 PM EST
Astronomical Twilight 5:40 AM EST 6:24 PM EST
Moon 1:44 PM EST (12/5) 2:37 AM EST (12/5)
Length of Visible Light 10h 31m
Length of Day
9h 31m
Waxing Gibbous, 79% of the Moon is Illuminated
Dec 5
Waxing Gibbous
Dec 10
Full
Dec 17
Last Quarter
Dec 24
New
Jan 1
First Quarter

Hourly Weather History & Observations

Time (EST) Temp. Dew Point Humidity Pressure Visibility Wind Dir Wind Speed Gust Speed Precip Events Conditions
12:53 AM 37.0 °F 33.1 °F 86% 30.35 in 10.0 mi Calm Calm - N/A   Clear
1:53 AM 37.0 °F 33.1 °F 86% 30.34 in 9.0 mi Calm Calm - N/A   Clear
2:53 AM 36.0 °F 33.1 °F 89% 30.33 in 10.0 mi Calm Calm - N/A   Clear
3:53 AM 36.0 °F 33.1 °F 89% 30.31 in 9.0 mi Calm Calm - N/A   Clear
4:53 AM 35.6 °F 33.8 °F 93% 30.30 in 8.0 mi Calm Calm - N/A   Clear
5:53 AM 37.0 °F 33.1 °F 86% 30.32 in 8.0 mi Calm Calm - N/A   Clear
6:53 AM 37.0 °F 33.1 °F 86% 30.33 in 8.0 mi Calm Calm - N/A   Clear
7:53 AM 39.0 °F 35.1 °F 86% 30.34 in 5.0 mi Calm Calm - N/A   Mostly Cloudy
8:53 AM 41.0 °F 36.0 °F 82% 30.33 in 6.0 mi Calm Calm - N/A   Haze
9:53 AM 44.1 °F 37.0 °F 76% 30.34 in 6.0 mi Calm Calm - N/A   Haze
10:53 AM 46.4 °F 39.2 °F 76% 30.31 in 7.0 mi Calm Calm - N/A   Mostly Cloudy
11:53 AM 53.1 °F 41.0 °F 64% 30.28 in 10.0 mi NNW 3.5 mph - N/A   Clear
12:53 PM 55.9 °F 42.1 °F 60% 30.25 in 10.0 mi Calm Calm - N/A   Overcast
1:53 PM 60.1 °F 44.1 °F 55% 30.21 in 10.0 mi Calm Calm - N/A   Scattered Clouds
2:53 PM 63.0 °F 46.0 °F 54% 30.19 in 10.0 mi Calm Calm - N/A   Clear
3:53 PM 63.0 °F 48.0 °F 58% 30.17 in 10.0 mi South 5.8 mph - N/A   Mostly Cloudy
4:53 PM 60.1 °F 48.0 °F 64% 30.18 in 10.0 mi South 10.4 mph - N/A   Overcast
5:53 PM 59.0 °F 48.0 °F 67% 30.18 in 10.0 mi SSE 8.1 mph - N/A   Overcast
6:53 PM 59.0 °F 48.9 °F 69% 30.18 in 10.0 mi South 11.5 mph - N/A   Overcast
7:53 PM 60.1 °F 48.9 °F 67% 30.18 in 10.0 mi SSE 10.4 mph - N/A   Overcast
8:53 PM 59.0 °F 48.9 °F 69% 30.19 in 10.0 mi South 6.9 mph - N/A   Overcast
9:53 PM 57.2 °F 50.0 °F 77% 30.15 in 10.0 mi South 5.8 mph - N/A   Overcast
10:44 PM 55.4 °F 50.0 °F 82% 30.14 in 10.0 mi Calm Calm - N/A   Overcast
10:53 PM 55.9 °F 50.0 °F 80% 30.14 in 10.0 mi Calm Calm - N/A   Overcast
11:53 PM 55.9 °F 50.0 °F 80% 30.12 in 10.0 mi Calm Calm - N/A   Overcast